Tracking 35331 objects as of 15-Sep-2026
HD Live streaming from Space Station
objects crossing your sky now

COSMOS 1912

Track COSMOS 1912 now!
10-day predictions
COSMOS 1912 is classified as:


NORAD ID: 18791
Int'l Code: 1988-002D
Launch date: January 15, 1988
Source: Commonwealth of Independent States (former USSR) (CIS)
Launch site: PLESETSK MISSILE AND SPACE COMPLEX (PKMTR)
Your satellite tracking list
Your tracking list is empty




NASA's NSSDC Master Catalog

Two Line Element Set (TLE):
1 18791U 88002D   26257.20022993  .00000030  00000-0  10570-3 0  9992
2 18791  82.6132 181.6818 0009278 260.3172 261.2784 12.65073271785149
Source of the keplerian elements: AFSPC